Location: Newark
(25.7507°S, 31.4676°E)
Time: 06:26:32
(UTC+00:00)

Hubble Space Telescope - Pass Details

Date: 23 January 2020
Orbit: 536 x 540 km, 28.5° (Epoch: 27 February)

Event Time Altitude Azimuth Distance (km) Brightness Sun altitude
Rises 17:06:31 0° 322° (NW) 2,672 4.5 -4.4°
Reaches altitude 10° 17:09:14 10° 339° (NNW) 1,785 3.4 -5.0°
Maximum altitude 17:12:16 20° 27° (NNE) 1,283 2.3 -5.6°
Drops below altitude 10° 17:15:19 10° 74° (ENE) 1,792 2.8 -6.2°
Enters shadow 17:16:08 - 81° (E) 2,039 3.1 -6.4°
